Hourly Weather Roundup
Issued by NWS

Home | Current Version | Previous Version | Text Only | Print | Product List | Glossary On
Versions: 1 2 3 4 5 6 7 8 9 10 11 12 13 14 15 16 17 18 19 20 21 22 23 24 25 26 27 28 29 30 31 32 33 34 35 36 37 38 39 40 41 42 43 44 45 46 47 48 49 50
410
NZUS43 KILX 291510
HWRCRS

NWR Hourly Weather Roundup
National Weather Service Lincoln IL
1000 AM CDT MON MAY 29 2017


CITY           SKY/WX    TMP DP  RH WIND       PRES   REMARKS
Champaign      SUNNY     77  50  38 SW13      29.88F
Lawrenceville  SUNNY     76  59  55 SW8       29.93S
Peoria         SUNNY     72  50  45 W6        29.89R
Springfield    SUNNY     77  52  41 SW8       29.89S
$$


CITY           SKY/WX    TMP DP  RH WIND       PRES   REMARKS
Bloomington    SUNNY     74  52  46 W14       29.89S
Danville       SUNNY     73  53  49 SW9       29.85F
Decatur        SUNNY     75  53  46 SW10      29.89S
Effingham      SUNNY     73  61  65 S7        29.93S
Flora          SUNNY     76  59  54 SW7       29.93S
Galesburg      PTSUNNY   66  49  54 NW12      29.89S
Jacksonville   SUNNY     75  51  42 SW12      29.89F
Lacon          MOSUNNY   71  51  47 W7        29.87S
La Salle       PTSUNNY   69  48  47 W9        29.86F
Lincoln        SUNNY     78  52  39 W9        29.89R
Litchfield     SUNNY     71  57  59 SW5       29.92F

CITY           SKY/WX    TMP DP  RH WIND       PRES   REMARKS
Macomb         MOSUNNY   71  49  45 NW12      29.92S
Mattoon        SUNNY     74  59  59 S7        29.89F
Moline         CLOUDY    69  48  47 W10       29.87S
Olney          SUNNY     74  61  63 S7        29.93S
Paris          SUNNY     74  57  55 W6        29.90F
Pontiac        SUNNY     73  52  47 W10G17    29.88S
Quincy         SUNNY     70  50  49 NW10      29.92R
Rantoul        SUNNY     78  48  34 SW10      29.87S
Robinson       SUNNY     74  57  55 SW6       29.92F
Taylorville    SUNNY     74  56  55 SW6       29.90F
Terre Haute    SUNNY     74  57  55 SW6       29.91S
$$


CITY           SKY/WX    TMP DP  RH WIND       PRES   REMARKS
Burlington     CLOUDY    68  49  50 NW7       29.90R
Chicago        MOSUNNY   72  45  37 W15G22    29.81R
Des Moines     MOSUNNY   70  43  37 NW13      29.93R
Evansville     SUNNY     78  61  55 SW8       29.95S HX  80
Indianapolis   MOSUNNY   72  58  61 W12       29.90S
Kansas City    MOSUNNY   71  52  50 NW10      29.98R
Milwaukee      MOSUNNY   70  45  40 W17G24    29.74F
St Louis       PTSUNNY   77  56  48 SW6       29.93F
$$





USA.gov is the U.S. government's official web portal to all federal, state and local government web resources and services.